When you browse on this site, cookies collect data to enhance your experience and personalize the content and advertising you see.
Visit our Privacy Policy to learn more. By continuing to use the site, you agree to this use of cookies and data.
  • In Switzerland
  • List of Countries
  • For 7 days
  • Water Temperature
  • Satellite Maps
  • Weather Map
  • Weather Widgets
  • user-avatar
    Login

    Hourly Weather Lucerne

    Today, 20 June, Thursday

    Time Temperature Precipitation Wind Pressure Humidity
    00:00 +19°C° 0.4 mm 1 mps 720 mmHg 89%
    01:00 +19°C° 0 mm 1 mps 720 mmHg 88%
    02:00 +18°C° 0.1 mm 1 mps 720 mmHg 89%
    03:00 +18°C° 0.1 mm 1 mps 720 mmHg 90%
    04:00 +16°C° 0.1 mm 1 mps 720 mmHg 90%
    05:00 +16°C° 0.1 mm 0 mps 720 mmHg 90%
    06:00 +17°C° 0.1 mm 0 mps 720 mmHg 89%
    07:00 +18°C° 0 mm 0 mps 721 mmHg 87%
    08:00 +19°C° 0.7 mm 0 mps 721 mmHg 83%
    09:00 +23°C° 0.7 mm 1 mps 721 mmHg 78%
    10:00 +24°C° 0.7 mm 1 mps 721 mmHg 74%
    11:00 +23°C° 1.3 mm 2 mps 721 mmHg 77%
    12:00 +23°C° 1.3 mm 2 mps 721 mmHg 80%
    13:00 +23°C° 1.3 mm 2 mps 721 mmHg 84%
    14:00 +23°C° 0.6 mm 2 mps 721 mmHg 81%
    15:00 +23°C° 0.6 mm 1 mps 721 mmHg 79%
    16:00 +24°C° 0.6 mm 1 mps 721 mmHg 77%
    17:00 +23°C° 1.1 mm 1 mps 721 mmHg 82%
    18:00 +22°C° 1.1 mm 1 mps 721 mmHg 86%
    19:00 +19°C° 1.1 mm 0 mps 721 mmHg 91%
    20:00 +18°C° 0.3 mm 0 mps 721 mmHg 91%
    21:00 +17°C° 0.3 mm 0 mps 721 mmHg 92%
    22:00 +15°C° 0.3 mm 0 mps 721 mmHg 93%
    23:00 +16°C° 0 mm 1 mps 721 mmHg 93%

    Tomorrow, 21 June, Friday

    Time Temperature Precipitation Wind Pressure Humidity
    00:00 +15°C° 0 mm 1 mps 721 mmHg 93%
    01:00 +15°C° 0 mm 1 mps 722 mmHg 94%
    02:00 +15°C° 0 mm 1 mps 721 mmHg 94%
    03:00 +14°C° 0 mm 1 mps 721 mmHg 93%
    04:00 +14°C° 0 mm 1 mps 721 mmHg 93%
    05:00 +14°C° 0 mm 0 mps 722 mmHg 92%
    06:00 +16°C° 0 mm 0 mps 722 mmHg 91%
    07:00 +17°C° 0 mm 0 mps 722 mmHg 90%
    08:00 +20°C° 0.1 mm 1 mps 722 mmHg 83%
    09:00 +22°C° 0.1 mm 1 mps 723 mmHg 77%
    10:00 +23°C° 0.1 mm 1 mps 723 mmHg 71%
    11:00 +24°C° 0.3 mm 1 mps 723 mmHg 68%
    12:00 +24°C° 0.3 mm 2 mps 723 mmHg 66%
    13:00 +25°C° 0.3 mm 2 mps 722 mmHg 64%
    14:00 +25°C° 0.9 mm 2 mps 722 mmHg 70%
    15:00 +24°C° 0.9 mm 2 mps 722 mmHg 77%
    16:00 +23°C° 0.9 mm 2 mps 722 mmHg 84%
    17:00 +22°C° 1.2 mm 1 mps 722 mmHg 87%
    18:00 +22°C° 1.2 mm 1 mps 722 mmHg 90%
    19:00 +21°C° 1.2 mm 1 mps 722 mmHg 93%
    20:00 +20°C° 1.2 mm 1 mps 722 mmHg 93%
    21:00 +19°C° 1.2 mm 1 mps 722 mmHg 93%
    22:00 +19°C° 1.2 mm 1 mps 722 mmHg 93%
    23:00 +18°C° 0.5 mm 1 mps 722 mmHg 93%

    Day after tomorrow, 22 June, Saturday

    Time Temperature Precipitation Wind Pressure Humidity
    00:00 +18°C° 0.5 mm 1 mps 722 mmHg 93%
    01:00 +16°C° 0.5 mm 1 mps 722 mmHg 92%
    02:00 +16°C° 0 mm 1 mps 721 mmHg 92%
    03:00 +15°C° 0 mm 1 mps 721 mmHg 93%
    04:00 +14°C° 0 mm 0 mps 721 mmHg 93%
    05:00 +15°C° 0 mm 0 mps 721 mmHg 92%
    06:00 +16°C° 0 mm 0 mps 721 mmHg 92%
    07:00 +17°C° 0 mm 0 mps 722 mmHg 91%
    08:00 +17°C° 0.2 mm 0 mps 722 mmHg 88%
    09:00 +20°C° 0.2 mm 1 mps 722 mmHg 85%
    10:00 +21°C° 0.2 mm 1 mps 722 mmHg 83%
    11:00 +21°C° 0.4 mm 1 mps 722 mmHg 80%
    12:00 +22°C° 0.4 mm 1 mps 722 mmHg 78%
    13:00 +23°C° 0.4 mm 1 mps 722 mmHg 76%
    14:00 +23°C° 0.4 mm 2 mps 722 mmHg 77%
    15:00 +23°C° 0.4 mm 2 mps 722 mmHg 78%
    16:00 +23°C° 0.4 mm 2 mps 721 mmHg 80%
    17:00 +21°C° 0.1 mm 2 mps 722 mmHg 82%
    18:00 +21°C° 0.1 mm 2 mps 722 mmHg 84%
    19:00 +21°C° 0.1 mm 1 mps 722 mmHg 86%
    20:00 +20°C° 0 mm 1 mps 722 mmHg 89%
    21:00 +19°C° 0 mm 1 mps 722 mmHg 93%
    22:00 +18°C° 0 mm 1 mps 723 mmHg 96%
    23:00 +18°C° 0 mm 1 mps 723 mmHg 96%

    23 June, Sunday

    Time Temperature Precipitation Wind Pressure Humidity
    00:00 +15°C° 0 mm 0 mps 723 mmHg 96%
    01:00 +15°C° 0 mm 0 mps 723 mmHg 96%
    02:00 +15°C° 0 mm 0 mps 722 mmHg 96%
    03:00 +14°C° 0 mm 0 mps 722 mmHg 96%
    04:00 +14°C° 0 mm 0 mps 722 mmHg 96%
    05:00 +15°C° 0 mm 0 mps 722 mmHg 93%
    06:00 +16°C° 0 mm 0 mps 723 mmHg 91%
    07:00 +17°C° 0 mm 0 mps 723 mmHg 88%
    08:00 +20°C° 0 mm 1 mps 723 mmHg 82%
    09:00 +22°C° 0 mm 1 mps 723 mmHg 76%
    10:00 +23°C° 0 mm 2 mps 722 mmHg 70%
    11:00 +25°C° 0 mm 2 mps 722 mmHg 66%
    12:00 +26°C° 0 mm 2 mps 723 mmHg 62%
    13:00 +27°C° 0 mm 2 mps 723 mmHg 58%
    14:00 +27°C° 0 mm 2 mps 722 mmHg 59%
    15:00 +28°C° 0 mm 2 mps 722 mmHg 60%
    16:00 +28°C° 0 mm 2 mps 722 mmHg 62%
    17:00 +27°C° 0 mm 2 mps 722 mmHg 68%
    18:00 +26°C° 0 mm 1 mps 723 mmHg 74%
    19:00 +25°C° 0 mm 1 mps 723 mmHg 80%
    20:00 +24°C° 0 mm 1 mps 723 mmHg 85%
    21:00 +22°C° 0 mm 1 mps 723 mmHg 89%
    22:00 +20°C° 0 mm 1 mps 724 mmHg 93%
    23:00 +20°C° 0 mm 1 mps 724 mmHg 93%

    24 June, Monday

    Time Temperature Precipitation Wind Pressure Humidity
    00:00 +20°C° 0 mm 1 mps 724 mmHg 92%
    01:00 +19°C° 0 mm 1 mps 724 mmHg 92%
    02:00 +19°C° 0 mm 1 mps 724 mmHg 91%
    03:00 +19°C° 0 mm 1 mps 724 mmHg 91%
    04:00 +18°C° 0 mm 1 mps 724 mmHg 90%
    05:00 +18°C° 0 mm 0 mps 724 mmHg 86%
    06:00 +20°C° 0 mm 0 mps 725 mmHg 82%
    07:00 +21°C° 0 mm 0 mps 725 mmHg 79%
    08:00 +23°C° 0 mm 0 mps 725 mmHg 71%
    09:00 +27°C° 0 mm 1 mps 725 mmHg 64%
    10:00 +29°C° 0 mm 1 mps 725 mmHg 56%
    11:00 +30°C° 0 mm 1 mps 725 mmHg 52%
    12:00 +31°C° 0 mm 2 mps 725 mmHg 48%
    13:00 +32°C° 0 mm 2 mps 725 mmHg 43%
    14:00 +32°C° 0 mm 2 mps 725 mmHg 43%
    15:00 +32°C° 0 mm 2 mps 725 mmHg 43%
    16:00 +32°C° 0 mm 1 mps 725 mmHg 43%
    17:00 +31°C° 0 mm 1 mps 725 mmHg 52%
    18:00 +30°C° 0 mm 1 mps 725 mmHg 61%
    19:00 +28°C° 0 mm 1 mps 725 mmHg 70%
    20:00 +26°C° 0 mm 1 mps 725 mmHg 74%
    21:00 +25°C° 0 mm 1 mps 726 mmHg 78%
    22:00 +23°C° 0 mm 1 mps 726 mmHg 82%
    23:00 +23°C° 0 mm 1 mps 726 mmHg 81%

    25 June, Tuesday

    Time Temperature Precipitation Wind Pressure Humidity
    00:00 +22°C° 0 mm 1 mps 726 mmHg 81%
    01:00 +22°C° 0 mm 1 mps 726 mmHg 80%
    02:00 +22°C° 0 mm 1 mps 726 mmHg 79%
    03:00 +21°C° 0 mm 1 mps 726 mmHg 77%
    04:00 +21°C° 0 mm 1 mps 725 mmHg 76%
    05:00 +22°C° 0 mm 1 mps 726 mmHg 74%
    06:00 +22°C° 0 mm 0 mps 726 mmHg 72%
    07:00 +24°C° 0 mm 0 mps 726 mmHg 70%
    08:00 +25°C° 0 mm 0 mps 726 mmHg 64%
    09:00 +29°C° 0 mm 1 mps 726 mmHg 59%
    10:00 +31°C° 0 mm 1 mps 727 mmHg 53%
    11:00 +33°C° 0 mm 1 mps 727 mmHg 50%
    12:00 +34°C° 0 mm 1 mps 727 mmHg 46%
    13:00 +35°C° 0 mm 1 mps 727 mmHg 42%
    14:00 +35°C° 0 mm 1 mps 727 mmHg 42%
    15:00 +35°C° 0 mm 1 mps 727 mmHg 42%
    16:00 +35°C° 0 mm 1 mps 727 mmHg 41%
    17:00 +34°C° 0 mm 1 mps 727 mmHg 51%
    18:00 +32°C° 0 mm 1 mps 727 mmHg 61%
    19:00 +29°C° 0 mm 0 mps 727 mmHg 71%
    20:00 +29°C° 0 mm 1 mps 727 mmHg 73%
    21:00 +27°C° 0 mm 1 mps 727 mmHg 75%
    22:00 +25°C° 0 mm 1 mps 728 mmHg 78%
    23:00 +25°C° 0 mm 1 mps 727 mmHg 76%
    Show more